Location: Aalen
(48.8330°N, 10.1000°E)
Time: 00:39:00
(UTC+02:00)

Tiangong 2 - Visible Passes

Search period start: 22 May 2019 00:00
Search period end: 01 June 2019 00:00
Orbit: 379 x 387 km, 42.8° (Epoch: 21 May)

Date Brightness Start Highest point End Pass type
(mag) Time Alt. Az. Time Alt. Az. Time Alt. Az.
22 May 2.2 22:35:47 10° SW 22:38:27 25° S 22:39:08 23° SSE visible
23 May 2.5 23:12:08 10° WSW 23:14:11 24° SSW 23:14:11 24° SSW visible
24 May 2.2 22:12:13 10° WSW 22:14:56 27° S 22:16:53 15° SE visible
24 May 3.7 23:48:53 10° WSW 23:49:04 11° WSW 23:49:04 11° WSW visible
25 May 2.4 22:48:44 10° WSW 22:51:16 22° SSW 22:51:42 22° S visible
26 May 2.3 21:48:43 10° WSW 21:51:23 25° S 21:54:03 10° SE visible
26 May 3.5 23:25:49 10° SW 23:26:26 12° SW 23:26:26 12° SW visible
27 May 2.9 22:25:25 10° WSW 22:27:41 18° SSW 22:28:58 15° SSE visible
29 May 3.3 22:02:18 10° SW 22:04:01 14° SSW 22:05:43 10° S visible
